Home > Weather > Saint John > Past weeks

Flag for Canada Weather for the Past 2 Weeks in Saint John, New Brunswick, Canada

Now
52 °F

Scattered clouds.


Feels Like: 51 °F
Forecast: 32 / 55 °F
Wind: 3 mph from Southeast

Location: Saint John

Current Time: May 1, 2016 at 11:11:17 AM

Latest Report: May 1, 2016 at 10:00 AM


Visibility: 15 mi

Pressure: 30.28 "Hg

Humidity: 44%

Dew Point: 30 °F

Location of Saint JohnLocation

Historic Weather in Saint John — Graph

°F

Saint John Temperature Yesterday

Maximum temperature yesterday: 57 °F (at 3:00 PM)
Minimum temperature yesterday: 21 °F (at 5:00 AM)
Average temperature yesterday: 40 °F

High & Low Weather Summary for the Past Weeks

 TemperatureHumidityPressure
High72 °F (Apr 22, 2:00 PM)100% (Apr 17, 8:00 AM)30.53 "Hg (Apr 17, 8:00 AM)
Low18 °F (Apr 29, 6:00 AM)14% (Apr 30, 3:00 PM)29.73 "Hg (Apr 23, 5:00 PM)
Average41 °F55%30.02 "Hg
* Reported Apr 16 9:00 AM — May 1 9:00 AM, Saint John, Weather by CustomWeather, © 2016

Note: Actual official high and low records may vary slightly from our data, if they occured in-between our weather recording intervals... More about our weather records

Advertising

Saint John Weather History for the Previous 24 Hours

Scroll right to see more
 ConditionsComfort  
Time TempWeatherWind HumidityBarometerVisibility
9:00 AM
Sun, May 1
48 °FPassing clouds.3 mph50%30.27 "Hg15 mi
8:00 AM37 °FPassing clouds.No wind75%30.27 "Hg15 mi
7:00 AM27 °FPassing clouds.No wind86%30.25 "Hg15 mi
6:00 AM23 °FPassing clouds.2 mph93%30.24 "Hg15 mi
5:00 AM25 °FClear.2 mph86%30.23 "Hg15 mi
4:00 AM23 °FClear.No wind93%30.24 "Hg15 mi
3:00 AM27 °FClear.2 mph80%30.25 "Hg15 mi
2:00 AM27 °FClear.2 mph80%30.25 "Hg15 mi
1:00 AM27 °FClear.2 mph74%30.25 "Hg15 mi
11:00 PM
Sat, Apr 30
30 °FClear.2 mph75%30.25 "Hg15 mi
10:00 PM32 °FPassing clouds.No wind69%30.23 "Hg15 mi
9:00 PM41 °FPassing clouds.3 mph61%30.22 "Hg15 mi
8:00 PM46 °FPassing clouds.7 mph34%30.21 "Hg15 mi
7:00 PM52 °FPassing clouds.10 mph24%30.20 "Hg15 mi
6:00 PM54 °FPassing clouds.10 mph24%30.18 "Hg15 mi
5:00 PM55 °FPassing clouds.9 mph24%30.16 "Hg15 mi
4:00 PM55 °FPassing clouds.12 mph21%30.17 "Hg15 mi
3:00 PM57 °FScattered clouds.8 mph14%30.18 "Hg15 mi
2:00 PM54 °FPartly sunny.9 mph16%30.19 "Hg15 mi
1:00 PM52 °FPartly sunny.9 mph16%30.21 "Hg15 mi
12:00 PM50 °FPartly sunny.5 mph19%30.22 "Hg15 mi
11:00 AM48 °FPartly sunny.7 mph20%30.22 "Hg15 mi
Weather by CustomWeather, © 2016

See weather overviewHow to use our weather pages